Voltar ao catálogo

SL-14 R/B

AtivoPO
NORAD 22627·ROCKET BODY·🇷🇺 Russia

Lançado Apr 16, 1993 de Plesetsk Cosmodrome

Loading…

Próximas Passagens (próximas 24 horas)

TLE

AtualizadoSource: Space-Track

Época: Sep 14, 2026, 14:16 UTC

1 22627U 93024B   26257.59508763  .00000286  00000-0  34396-4 0  9997
2 22627  82.5231 201.7543 0024206  82.0839 278.3120 14.80196251801108

Acompanhe SL-14 R/B em tempo real com AllMySat

Download on the App Store